[[{"header":{"parameterUnit":"m.s-1","parameterCategory":1,"la1":30.2991,"la2":30.254,"lo1":-89.0895,"lo2":-89.0444,"dy":0.0017,"dx":0.0017,"nx":28,"ny":28,"refTime":"2025-02-08T03:00:00:Z","depth":0,"parameterNumber":2,"parameterNumberName":"U-component_of_WINDS"},"data":[0,0,0,0,0,0,0,0,0,0,0,0,0,0,0,0,0,0,0,0,0,0,0,0,0,0,0,0,0,0,0,0,0,0,0,0,0,0,0,0,0,0,0,0,0,0,0,0,0,0,0,0,0,0,0,0,0,0,-0.9885,-0.9885,0,-0.9935,-0.9935,-0.9936,-0.995,-0.995,-0.9949,-0.9949,-1.0002,-1.0003,-1.0005,0,0,0,0,0,0,0,0,0,0,0,0,0,-0.9803,-0.9804,-0.9885,-0.9885,-0.9886,-0.9935,-0.9935,-0.9936,-0.995,-0.995,-0.9949,-0.9949,-1.0001,-1.0003,-1.0005,0,0,0,0,0,0,0,0,0,0,0,0,0,-0.9844,-0.9805,-0.9885,-0.9899,-0.99,-0.9934,-0.9935,-0.9936,-0.995,-0.995,-0.9949,-0.9949,-1.0001,-1.0003,-1.0006,-1.003,0,0,-1.0013,-1.0014,0,0,0,0,0,0,0,0,-0.9842,-0.9847,-0.9896,-0.9898,-0.99,-0.9936,-0.9926,-0.9967,-0.995,-0.9931,-0.9949,-0.9949,-0.998,-0.9984,-0.9995,-1.0032,-1.0034,-1.0013,-1.0015,-1.0016,-1.0017,0,0,0,0,0,0,0,-0.9839,-0.9845,-0.9904,-0.9897,-0.9899,-0.9903,-0.9908,-0.9934,-0.9958,-0.9933,-0.9934,-0.994,-0.9981,-0.9992,-0.9996,-1.0035,-1.0013,-1.0016,-1.0017,-1.0018,-1.0095,-1.0095,0,0,0,0,0,0,-0.9834,-0.9843,-0.9903,-0.9906,-0.9869,-0.9905,-0.9911,-0.9925,-0.9957,-0.9962,-0.994,-0.994,-0.9988,-0.9993,-0.9998,-1.0028,-1.0016,-1.0018,-1.002,-1.0094,-1.0095,-1.0095,0,0,0,0,0,0,-0.9832,-0.9839,-0.9901,-0.9875,-0.9883,-0.9907,-0.9922,-0.9926,-0.9937,-0.9963,-0.9967,-0.9947,-0.9988,-0.9994,-1.0021,-1.003,-1.0019,-1.0022,-1.0094,-1.0094,-1.0095,-1.0088,0,0,0,0,0,0,-0.9829,-0.9838,-0.9847,-0.9875,-0.9884,-0.9923,-0.9922,-0.9927,-0.9941,-0.9942,-0.997,-0.9975,-0.9988,-1.0018,-1.0024,-1.0033,-1.0024,-1.0093,-1.0094,-1.0095,-1.0088,-1.0088,-1.0089,0,0,0,0,0,-0.9826,-0.9843,-0.9847,-0.9854,-0.9896,-0.9923,-0.9929,-0.9944,-0.9942,-0.9951,-0.9968,-0.9974,-1.0028,-1.002,-1.0028,-1.0038,-1.0092,-1.0094,-1.0095,-1.0087,-1.0088,-1.0089,0,0,0,0,0,0,-0.9816,-0.9847,-0.9852,-0.9878,-0.9898,-0.9926,-0.9938,-0.9944,-0.9965,-0.9965,-0.9984,-0.999,-1.0016,-1.003,-1.002,-1.0063,-1.0061,-1.0063,-1.0052,-1.0054,-1.0054,-1.005,-1.0026,0,0,0,0,0,-0.9817,-0.9836,-0.9863,-0.9883,-0.9893,-0.9914,-0.9926,-0.9936,-0.9957,-0.9966,-0.9985,-1.0006,-1.0028,-1.0042,-1.0063,-1.009,-1.0097,-1.0101,-1.0102,-1.0102,-1.0104,-1.0119,-1.0121,-1.0099,-1.0099,-1.0099,0,0,-0.9819,-0.9838,-0.9849,-0.9882,-0.9898,-0.9918,-0.9921,-0.9942,-0.9957,-0.9969,-0.9995,-1.001,-1.0035,-1.0062,-1.0075,-1.0074,-1.0112,-1.0104,-1.0104,-1.0105,-1.0121,-1.0123,-1.0125,-1.01,-1.01,-1.01,0,0,-0.9832,-0.9849,-0.9868,-0.9884,-0.9909,-0.9922,-0.9927,-0.9954,-0.9964,-0.999,-1.0,-1.0019,-1.0056,-1.0074,-1.0087,-1.0108,-1.0114,-1.0114,-1.0118,-1.0133,-1.0135,-1.0136,-1.0143,-1.0145,-1.0116,-1.0116,-1.0116,0,-0.9831,-0.9861,-0.9877,-0.9897,-0.9911,-0.9923,-0.9943,-0.9958,-0.9989,-0.9998,-0.9998,-1.0045,-1.0062,-1.0093,-1.0098,-1.0109,-1.0115,-1.0111,-1.0133,-1.0135,-1.0137,-1.0143,-1.0146,-1.0116,-1.0116,-1.0116,-1.0116,0,-0.9859,-0.9879,-0.9892,-0.992,-0.9936,-0.9956,-0.9975,-0.9989,-0.9998,-1.0012,-1.0039,-1.0061,-1.0087,-1.0095,-1.0104,-1.0128,-1.0127,-1.0129,-1.0127,-1.0138,-1.0145,-1.0148,-1.0116,-1.0116,-1.0116,-1.0116,0,0,-0.9866,-0.9903,-0.9907,-0.992,-0.9949,-0.9965,-0.9986,-1.0011,-1.0023,-1.0044,-1.0062,-1.0094,-1.0096,-1.0112,-1.0123,-1.0136,-1.015,-1.0137,-1.0138,-1.0138,-1.0177,-1.0174,-1.0177,-1.0155,-1.0156,-1.0156,-1.0175,0,-0.9882,-0.9919,-0.9934,-0.9963,-0.9982,-0.9995,-1.0013,-1.0033,-1.0047,-1.0066,-1.0082,-1.0103,-1.0105,-1.0115,-1.0128,-1.0145,-1.0158,-1.0145,-1.0172,-1.0173,-1.0164,-1.0181,-1.0178,-1.0194,-1.0178,-1.0178,-1.0179,0,-0.9906,-0.9926,-0.9958,-0.9983,-0.9992,-1.0008,-1.0032,-1.005,-1.0073,-1.0082,-1.01,-1.011,-1.0133,-1.0131,-1.0163,-1.0153,-1.0166,-1.0176,-1.0177,-1.0179,-1.0176,-1.0183,-1.02,-1.0202,-1.0183,-1.0183,-1.0182,0,-0.9907,-0.9943,-0.9966,-0.9977,-1.0008,-1.0019,-1.0032,-1.0055,-1.0069,-1.0091,-1.01,-1.0125,-1.0138,-1.0157,-1.0174,-1.017,-1.0204,-1.0203,-1.0213,-1.0212,-1.0218,-1.0218,-1.0237,-1.0228,-1.0228,-1.0228,-1.0228,0,-0.9923,-0.9942,-0.9967,-0.9981,-1.0002,-1.002,-1.0041,-1.0055,-1.0075,-1.0093,-1.0106,-1.0123,-1.0145,-1.0165,-1.0179,-1.0203,-1.0209,-1.0217,-1.0221,-1.0216,-1.0214,-1.0223,-1.0222,-1.0229,-1.0228,-1.0228,-1.0228,0,-0.9928,-0.9945,-0.9971,-0.9998,-1.0006,-1.002,-1.0044,-1.0059,-1.0074,-1.0096,-1.0102,-1.0126,-1.015,-1.0169,-1.0201,-1.021,-1.0235,-1.024,-1.0227,-1.0229,-1.0237,-1.0235,-1.0262,-1.0266,-1.0255,-1.0255,-1.0255,0,-0.9936,-0.995,-0.9979,-0.9991,-1.0005,-1.0025,-1.0039,-1.0057,-1.0072,-1.0099,-1.0111,-1.0135,-1.0156,-1.0194,-1.0214,-1.0238,-1.0243,-1.0251,-1.0247,-1.0241,-1.0242,-1.0241,-1.0242,-1.0251,-1.0251,-1.0251,-1.0251,0,-0.9949,-0.9957,-0.9977,-0.9999,-1.0016,-1.0035,-1.0055,-1.0064,-1.0086,-1.0102,-1.0126,-1.0142,-1.0174,-1.0199,-1.0225,-1.024,-1.0249,-1.0252,-1.0255,-1.025,-1.0242,-1.0246,-1.0227,-1.0251,-1.0251,-1.0251,-1.0251,-1.0251,-0.9955,-0.9968,-0.999,-1.0012,-1.0029,-1.0046,-1.0061,-1.0078,-1.0098,-1.0125,-1.0135,-1.016,-1.0183,-1.022,-1.0235,-1.0255,-1.0256,-1.0261,-1.0262,-1.0263,-1.0262,-1.0239,-1.026,-1.026,-1.026,-1.026,-1.026,0,-0.9968,-0.9983,-1.0003,-1.0029,-1.0046,-1.0053,-1.0075,-1.0089,-1.011,-1.0131,-1.0151,-1.0179,-1.0203,-1.0225,-1.025,-1.0262,-1.0267,-1.0268,-1.0267,-1.0271,-1.026,-1.0254,-1.0264,-1.0264,-1.0264,-1.0264,-1.0264,-1.0264,-0.9977,-0.9999,-1.001,-1.0041,-1.0056,-1.008,-1.0092,-1.0109,-1.0125,-1.0155,-1.0175,-1.0189,-1.0211,-1.0238,-1.0261,-1.0267,-1.0275,-1.0275,-1.0282,-1.0272,-1.0271,-1.0271,-1.0265,-1.0277,-1.0277,-1.0291,-1.0291,-1.0291]},{"header":{"parameterUnit":"m.s-1","parameterCategory":1,"la1":30.2991,"la2":30.254,"lo1":-89.0895,"lo2":-89.0444,"dy":0.0017,"dx":0.0017,"nx":28,"ny":28,"refTime":"2025-02-08T03:00:00:Z","depth":0,"parameterNumber":3,"parameterNumberName":"V-component_of_WINDS"},"data":[0,0,0,0,0,0,0,0,0,0,0,0,0,0,0,0,0,0,0,0,0,0,0,0,0,0,0,0,0,0,0,0,0,0,0,0,0,0,0,0,0,0,0,0,0,0,0,0,0,0,0,0,0,0,0,0,0,0,1.7352,1.7354,0,1.7512,1.7514,1.7516,1.7578,1.7578,1.7577,1.7577,1.7743,1.7747,1.7752,0,0,0,0,0,0,0,0,0,0,0,0,0,1.7104,1.7108,1.7352,1.7354,1.7356,1.7512,1.7514,1.7516,1.7578,1.7578,1.7577,1.7576,1.7741,1.7747,1.7753,0,0,0,0,0,0,0,0,0,0,0,0,0,1.7233,1.711,1.7352,1.7406,1.7412,1.7511,1.7514,1.7517,1.7578,1.7578,1.7577,1.7576,1.7739,1.7746,1.7753,1.7811,0,0,1.7776,1.7779,0,0,0,0,0,0,0,0,1.7225,1.7242,1.7396,1.7402,1.741,1.7524,1.7488,1.7616,1.7578,1.7515,1.7577,1.7576,1.7671,1.7684,1.7715,1.7819,1.7826,1.7776,1.7781,1.7784,1.7786,0,0,0,0,0,0,0,1.7216,1.7235,1.7416,1.7398,1.7406,1.7423,1.7441,1.7512,1.7595,1.7521,1.7526,1.7544,1.7674,1.7708,1.7719,1.7829,1.7776,1.7782,1.7787,1.779,1.7991,1.7992,0,0,0,0,0,0,1.7198,1.7227,1.7411,1.742,1.7314,1.7428,1.7448,1.7488,1.7594,1.761,1.7544,1.7546,1.7696,1.7711,1.7725,1.7803,1.7784,1.779,1.7795,1.799,1.7992,1.7993,0,0,0,0,0,0,1.7193,1.7214,1.7404,1.7325,1.7351,1.7433,1.7478,1.7492,1.7525,1.7612,1.7627,1.7563,1.7696,1.7715,1.779,1.7809,1.7794,1.78,1.7989,1.7991,1.7992,1.7955,0,0,0,0,0,0,1.7185,1.7211,1.7233,1.7325,1.7355,1.7465,1.7479,1.7495,1.7537,1.7541,1.7634,1.7648,1.7697,1.7779,1.7797,1.7819,1.7806,1.7988,1.799,1.7992,1.7955,1.7955,1.7956,0,0,0,0,0,1.7176,1.7217,1.7234,1.7256,1.7384,1.7466,1.7483,1.7537,1.7539,1.7562,1.7618,1.7645,1.7804,1.7786,1.7807,1.7831,1.7987,1.7989,1.7992,1.7955,1.7955,1.7956,0,0,0,0,0,0,1.7125,1.723,1.725,1.7322,1.7384,1.7476,1.7507,1.7535,1.76,1.7601,1.7666,1.7687,1.7757,1.7801,1.778,1.7894,1.7897,1.7904,1.7863,1.7863,1.7864,1.7852,1.7812,0,0,0,0,0,1.7122,1.7179,1.7268,1.7322,1.7352,1.7424,1.7462,1.7499,1.7567,1.7594,1.7655,1.772,1.7785,1.7827,1.7891,1.7962,1.7984,1.7989,1.7989,1.7989,1.7994,1.8037,1.8041,1.8,1.8,1.8,0,0,1.7117,1.7181,1.7213,1.7314,1.7367,1.7425,1.7446,1.7507,1.7552,1.7603,1.7678,1.7725,1.7803,1.7876,1.7912,1.7916,1.801,1.7991,1.7991,1.7996,1.804,1.8044,1.8047,1.8002,1.8001,1.8001,0,0,1.7138,1.7191,1.7243,1.7296,1.7376,1.7423,1.7436,1.7524,1.7557,1.7633,1.7673,1.7728,1.7837,1.7892,1.7934,1.7976,1.8005,1.7995,1.7997,1.8038,1.8041,1.8044,1.8062,1.8067,1.8,1.8,1.8,0,1.7121,1.721,1.7267,1.7326,1.737,1.7419,1.7473,1.7522,1.7618,1.7648,1.7651,1.7791,1.7847,1.7935,1.7945,1.7977,1.7995,1.7986,1.8036,1.804,1.8044,1.8061,1.8067,1.7999,1.7999,1.7999,1.7999,0,1.7187,1.7249,1.7282,1.7374,1.7421,1.7478,1.7544,1.7585,1.7618,1.7666,1.7744,1.7812,1.7892,1.7915,1.7948,1.8009,1.8009,1.8023,1.8028,1.8045,1.8062,1.8069,1.7997,1.7997,1.7998,1.7998,0,0,1.7181,1.7304,1.7315,1.7358,1.745,1.75,1.7559,1.7637,1.7672,1.7737,1.779,1.7882,1.7896,1.7944,1.7983,1.8019,1.8051,1.8029,1.8032,1.8032,1.8125,1.8115,1.8122,1.807,1.8071,1.8072,1.8119,0,1.7215,1.7322,1.7375,1.7461,1.7519,1.7567,1.7619,1.7682,1.7728,1.7786,1.7838,1.7903,1.7915,1.7945,1.7982,1.8039,1.8071,1.8036,1.8121,1.8124,1.8102,1.813,1.812,1.8161,1.8126,1.8127,1.8128,0,1.7269,1.7334,1.7425,1.7512,1.7539,1.7584,1.7661,1.7715,1.7788,1.7819,1.7873,1.7911,1.7977,1.7976,1.8069,1.8045,1.8083,1.8116,1.8119,1.813,1.8128,1.8144,1.8175,1.8181,1.8139,1.8138,1.8137,0,1.7257,1.7368,1.7437,1.7472,1.7575,1.7606,1.765,1.7723,1.7767,1.7834,1.7864,1.7937,1.7978,1.8035,1.8093,1.8087,1.8182,1.8185,1.8211,1.821,1.823,1.8228,1.8269,1.8251,1.8251,1.8251,1.8251,0,1.7291,1.7345,1.7433,1.7476,1.7539,1.76,1.7661,1.7709,1.7773,1.7827,1.7873,1.7923,1.7995,1.8055,1.8101,1.8172,1.819,1.8218,1.823,1.8216,1.8212,1.8242,1.8242,1.8253,1.8253,1.8252,1.8252,0,1.7289,1.735,1.7429,1.7519,1.7544,1.7586,1.7665,1.7709,1.7758,1.7826,1.7845,1.7923,1.7995,1.8058,1.8154,1.8185,1.826,1.8273,1.8235,1.8241,1.8265,1.8263,1.8328,1.834,1.8312,1.8312,1.8312,0,1.7307,1.735,1.7445,1.7485,1.7528,1.7591,1.7636,1.7698,1.7744,1.7831,1.7865,1.7941,1.8005,1.8119,1.8185,1.8259,1.8276,1.8294,1.8287,1.8272,1.8279,1.8276,1.8282,1.8294,1.8294,1.8294,1.8294,0,1.7333,1.7362,1.7424,1.7499,1.7551,1.7613,1.7676,1.7705,1.778,1.7829,1.7904,1.7953,1.8052,1.8127,1.8209,1.8256,1.8289,1.8295,1.8306,1.8292,1.8269,1.8284,1.8237,1.8294,1.8294,1.8294,1.8294,1.8294,1.7343,1.7384,1.7459,1.7528,1.7582,1.764,1.7686,1.7741,1.7804,1.7889,1.7922,1.7999,1.8073,1.8186,1.8233,1.8295,1.8301,1.8315,1.8319,1.8322,1.8321,1.8257,1.831,1.831,1.831,1.831,1.8311,0,1.7374,1.7424,1.7487,1.7574,1.7629,1.7653,1.7724,1.7769,1.7836,1.7902,1.7964,1.8051,1.8125,1.8197,1.8275,1.8311,1.8328,1.8329,1.8328,1.8339,1.8311,1.8295,1.8315,1.8315,1.8315,1.8315,1.8315,1.8315,1.7396,1.7468,1.7505,1.7604,1.7655,1.773,1.7769,1.7824,1.7877,1.7972,1.8033,1.8079,1.8148,1.8232,1.8301,1.8321,1.8348,1.8346,1.837,1.8342,1.8341,1.834,1.8325,1.8351,1.8351,1.8394,1.8394,1.8394]}]]